When you browse on this site, cookies collect data to enhance your experience and personalize the content and advertising you see.
Visit our Privacy Policy to learn more. By continuing to use the site, you agree to this use of cookies and data.
  • în România
  • Lista ţărilor
  • Pe 7 zile
  • Temperatura apei
  • Meteo pe hartă
  • Widget-uri
  • user-avatar
    Intrare

    Meteo pe oră la Darovaya

    Astăzi, 16 Octombrie, Miercuri

    Timp Temperatura Precipitaţii Vânt Presiune Umiditate
    00:00 +3°C° 0 mm 2 m/s 753 mmHg 85%
    01:00 +3°C° 0 mm 2 m/s 754 mmHg 86%
    02:00 +3°C° 0 mm 2 m/s 754 mmHg 87%
    03:00 +3°C° 0 mm 1 m/s 754 mmHg 85%
    04:00 +2°C° 0 mm 2 m/s 755 mmHg 86%
    05:00 +2°C° 0 mm 2 m/s 755 mmHg 86%
    06:00 +2°C° 0 mm 2 m/s 755 mmHg 87%
    07:00 +2°C° 0 mm 2 m/s 755 mmHg 83%
    08:00 +2°C° 0 mm 3 m/s 755 mmHg 79%
    09:00 +2°C° 0 mm 3 m/s 755 mmHg 75%
    10:00 +3°C° 0 mm 3 m/s 755 mmHg 72%
    11:00 +4°C° 0 mm 3 m/s 755 mmHg 69%
    12:00 +5°C° 0 mm 4 m/s 755 mmHg 66%
    13:00 +6°C° 0 mm 4 m/s 754 mmHg 65%
    14:00 +6°C° 0 mm 4 m/s 754 mmHg 64%
    15:00 +7°C° 0 mm 4 m/s 754 mmHg 64%
    16:00 +6°C° 0 mm 4 m/s 754 mmHg 66%
    17:00 +6°C° 0 mm 4 m/s 753 mmHg 69%
    18:00 +5°C° 0 mm 4 m/s 753 mmHg 71%
    19:00 +6°C° 0 mm 5 m/s 752 mmHg 71%
    20:00 +6°C° 0 mm 5 m/s 752 mmHg 70%
    21:00 +6°C° 0 mm 5 m/s 752 mmHg 69%
    22:00 +5°C° 0 mm 6 m/s 752 mmHg 71%
    23:00 +5°C° 0 mm 6 m/s 751 mmHg 72%

    Mâine, 17 Octombrie, Joi

    Timp Temperatura Precipitaţii Vânt Presiune Umiditate
    00:00 +5°C° 0 mm 6 m/s 751 mmHg 73%
    01:00 +5°C° 0 mm 6 m/s 751 mmHg 76%
    02:00 +5°C° 0 mm 6 m/s 751 mmHg 78%
    03:00 +5°C° 0 mm 6 m/s 750 mmHg 81%
    04:00 +6°C° 0 mm 5 m/s 750 mmHg 84%
    05:00 +6°C° 0 mm 5 m/s 750 mmHg 87%
    06:00 +6°C° 0 mm 5 m/s 749 mmHg 89%
    07:00 +7°C° 0 mm 6 m/s 749 mmHg 88%
    08:00 +8°C° 0 mm 6 m/s 749 mmHg 87%
    09:00 +9°C° 0 mm 6 m/s 748 mmHg 86%
    10:00 +10°C° 0 mm 6 m/s 748 mmHg 82%
    11:00 +11°C° 0 mm 6 m/s 748 mmHg 79%
    12:00 +14°C° 0 mm 6 m/s 748 mmHg 75%
    13:00 +14°C° 0 mm 6 m/s 747 mmHg 73%
    14:00 +15°C° 0 mm 6 m/s 747 mmHg 71%
    15:00 +16°C° 0 mm 6 m/s 747 mmHg 70%
    16:00 +15°C° 0 mm 6 m/s 746 mmHg 74%
    17:00 +14°C° 0 mm 5 m/s 746 mmHg 79%
    18:00 +13°C° 0 mm 5 m/s 746 mmHg 83%
    19:00 +12°C° 0 mm 5 m/s 746 mmHg 83%
    20:00 +12°C° 0 mm 5 m/s 746 mmHg 82%
    21:00 +12°C° 0 mm 5 m/s 746 mmHg 81%
    22:00 +12°C° 0 mm 5 m/s 745 mmHg 83%
    23:00 +10°C° 0 mm 5 m/s 745 mmHg 84%

    Poimâine, 18 Octombrie, Vineri

    Timp Temperatura Precipitaţii Vânt Presiune Umiditate
    00:00 +11°C° 0 mm 4 m/s 745 mmHg 86%
    01:00 +11°C° 0 mm 4 m/s 745 mmHg 87%
    02:00 +11°C° 0 mm 4 m/s 745 mmHg 87%
    03:00 +11°C° 0 mm 4 m/s 745 mmHg 88%
    04:00 +10°C° 0 mm 4 m/s 745 mmHg 90%
    05:00 +10°C° 0 mm 4 m/s 746 mmHg 92%
    06:00 +8°C° 0 mm 4 m/s 746 mmHg 94%
    07:00 +10°C° 0 mm 4 m/s 746 mmHg 91%
    08:00 +10°C° 0 mm 4 m/s 746 mmHg 88%
    09:00 +11°C° 0 mm 4 m/s 746 mmHg 86%
    10:00 +12°C° 0 mm 4 m/s 747 mmHg 81%
    11:00 +12°C° 0 mm 4 m/s 747 mmHg 77%
    12:00 +13°C° 0 mm 5 m/s 747 mmHg 73%
    13:00 +13°C° 0 mm 4 m/s 747 mmHg 72%
    14:00 +14°C° 0 mm 4 m/s 747 mmHg 72%
    15:00 +14°C° 0 mm 4 m/s 748 mmHg 71%
    16:00 +13°C° 0 mm 3 m/s 748 mmHg 76%
    17:00 +12°C° 0 mm 3 m/s 748 mmHg 81%
    18:00 +12°C° 0 mm 2 m/s 748 mmHg 85%
    19:00 +10°C° 0 mm 2 m/s 748 mmHg 87%
    20:00 +10°C° 0 mm 2 m/s 748 mmHg 90%
    21:00 +9°C° 0 mm 2 m/s 748 mmHg 92%
    22:00 +10°C° 0 mm 2 m/s 749 mmHg 91%
    23:00 +11°C° 0 mm 1 m/s 749 mmHg 90%

    19 Octombrie, Sâmbătă

    Timp Temperatura Precipitaţii Vânt Presiune Umiditate
    00:00 +11°C° 0 mm 1 m/s 749 mmHg 89%
    01:00 +11°C° 0 mm 1 m/s 749 mmHg 90%
    02:00 +11°C° 0 mm 1 m/s 750 mmHg 90%
    03:00 +10°C° 0 mm 2 m/s 750 mmHg 91%
    04:00 +10°C° 0 mm 2 m/s 750 mmHg 91%
    05:00 +10°C° 0 mm 2 m/s 750 mmHg 92%
    06:00 +10°C° 0 mm 2 m/s 750 mmHg 92%
    07:00 +10°C° 0 mm 2 m/s 750 mmHg 91%
    08:00 +10°C° 0 mm 2 m/s 750 mmHg 89%
    09:00 +12°C° 0 mm 2 m/s 751 mmHg 88%
    10:00 +12°C° 0 mm 2 m/s 751 mmHg 85%
    11:00 +13°C° 0 mm 2 m/s 751 mmHg 83%
    12:00 +14°C° 0 mm 2 m/s 751 mmHg 80%
    13:00 +14°C° 0 mm 2 m/s 751 mmHg 78%
    14:00 +15°C° 0 mm 2 m/s 751 mmHg 76%
    15:00 +16°C° 0 mm 2 m/s 751 mmHg 74%
    16:00 +15°C° 0 mm 2 m/s 751 mmHg 79%
    17:00 +14°C° 0 mm 2 m/s 751 mmHg 83%
    18:00 +13°C° 0 mm 1 m/s 751 mmHg 87%
    19:00 +13°C° 0 mm 2 m/s 752 mmHg 88%
    20:00 +12°C° 0 mm 2 m/s 752 mmHg 89%
    21:00 +12°C° 0 mm 2 m/s 752 mmHg 90%
    22:00 +12°C° 0 mm 2 m/s 752 mmHg 91%
    23:00 +10°C° 0 mm 2 m/s 752 mmHg 91%

    20 Octombrie, Duminică

    Timp Temperatura Precipitaţii Vânt Presiune Umiditate
    00:00 +10°C° 0 mm 2 m/s 752 mmHg 92%
    01:00 +10°C° 0 mm 2 m/s 752 mmHg 92%
    02:00 +10°C° 0 mm 2 m/s 752 mmHg 92%
    03:00 +10°C° 0 mm 3 m/s 752 mmHg 92%
    04:00 +10°C° 0 mm 3 m/s 752 mmHg 92%
    05:00 +10°C° 0 mm 3 m/s 752 mmHg 92%
    06:00 +10°C° 0 mm 3 m/s 752 mmHg 91%
    07:00 +10°C° 0 mm 3 m/s 752 mmHg 90%
    08:00 +10°C° 0 mm 3 m/s 753 mmHg 88%
    09:00 +11°C° 0 mm 3 m/s 753 mmHg 86%
    10:00 +12°C° 0 mm 3 m/s 753 mmHg 81%
    11:00 +13°C° 0 mm 3 m/s 753 mmHg 76%
    12:00 +14°C° 0 mm 4 m/s 753 mmHg 72%
    13:00 +15°C° 0 mm 4 m/s 753 mmHg 71%
    14:00 +15°C° 0 mm 4 m/s 753 mmHg 70%
    15:00 +15°C° 0 mm 4 m/s 753 mmHg 69%
    16:00 +14°C° 0 mm 3 m/s 753 mmHg 74%
    17:00 +13°C° 0 mm 3 m/s 753 mmHg 78%
    18:00 +12°C° 0 mm 3 m/s 752 mmHg 83%
    19:00 +12°C° 0 mm 3 m/s 753 mmHg 84%
    20:00 +12°C° 0 mm 3 m/s 753 mmHg 85%
    21:00 +11°C° 0 mm 3 m/s 753 mmHg 87%
    22:00 +11°C° 0 mm 3 m/s 753 mmHg 88%
    23:00 +11°C° 0 mm 3 m/s 753 mmHg 88%

    21 Octombrie, Luni

    Timp Temperatura Precipitaţii Vânt Presiune Umiditate
    00:00 +11°C° 0 mm 3 m/s 753 mmHg 89%
    01:00 +10°C° 0 mm 3 m/s 753 mmHg 90%
    02:00 +10°C° 0 mm 3 m/s 753 mmHg 90%
    03:00 +10°C° 0 mm 3 m/s 753 mmHg 90%
    04:00 +10°C° 0 mm 3 m/s 753 mmHg 89%
    05:00 +10°C° 0 mm 3 m/s 752 mmHg 89%
    06:00 +10°C° 0 mm 4 m/s 752 mmHg 88%
    07:00 +11°C° 0 mm 4 m/s 752 mmHg 85%
    08:00 +11°C° 0 mm 4 m/s 752 mmHg 83%
    09:00 +12°C° 0 mm 5 m/s 752 mmHg 80%
    10:00 +13°C° 0 mm 5 m/s 752 mmHg 75%
    11:00 +14°C° 0 mm 6 m/s 752 mmHg 70%
    12:00 +15°C° 0 mm 6 m/s 752 mmHg 65%
    13:00 +16°C° 0 mm 6 m/s 751 mmHg 64%
    14:00 +16°C° 0 mm 6 m/s 751 mmHg 63%
    15:00 +16°C° 0 mm 6 m/s 750 mmHg 61%
    16:00 +15°C° 0 mm 6 m/s 750 mmHg 64%
    17:00 +15°C° 0 mm 6 m/s 749 mmHg 67%
    18:00 +14°C° 0 mm 6 m/s 749 mmHg 70%
    19:00 +13°C° 0 mm 6 m/s 749 mmHg 72%
    20:00 +13°C° 0 mm 5 m/s 749 mmHg 74%
    21:00 +12°C° 0 mm 5 m/s 749 mmHg 76%
    22:00 +12°C° 0 mm 5 m/s 749 mmHg 80%
    23:00 +10°C° 0 mm 5 m/s 749 mmHg 84%
    Arată mai mult